Starlink 32598

operational
NORAD ID: 62046 Int'l Des: 2024-216 Owner: SPXS Country: US Constellation: starlink
LEOCIRCULAR

关于 Starlink 32598

正在加载描述...

实时位置

正在加载3D地球...

即将过境

高度历史

Altitude vs Time

uPlot chart will show altitude changes over time

两行轨道根数

1 62046U 24216Q 25260.10482085 .00031309 00000-0 11434-2 0 9997
2 62046 42.9988 156.1607 0000940 253.3645 106.7104 15.27552919 47339
Epoch: Sep 17, 2025 • Age: 8 hours

当前状态

高度 483.9 km
速度 7.63 km/s
星下点 29.49°N, 136.26°E
发射日期 Nov 21, 2024
运行时间 0.8 years
类型 internet

技术详情

分类 Payload
质量 730.00 kg
干质量 700.00 kg
总质量 730.00 kg
长度 0.30 m
直径 4.10 m
跨度 29.00 m
形状 Box + pan
制造商 SPXS
平台类型 Starlink V2M
阶段状态 In Orbit
所有者/国家 SPXS/US

大型星座

Loading constellations...